Time,TemperatureF,DewpointF,PressureIn,WindDirection,WindDirectionDegrees,WindSpeedMPH,WindSpeedGustMPH,Humidity,HourlyPrecipIn,Conditions,Clouds,dailyrainin,SolarRadiationWatts/m^2,SoftwareType,DateUTC
2013-05-21 00:01:00,73.9,63.9,29.78,South,173,0.0,0.0,71,0.00,FEW,SCT,0.00,0.0,WeatherDisplay:10.37,2013-05-21 04:01:00,
2013-05-21 00:02:00,73.9,63.9,29.78,South,173,0.0,0.0,71,0.00,CLR,SCT,0.00,0.0,WeatherDisplay:10.37,2013-05-21 04:02:00,
2013-05-21 00:04:00,73.8,64.2,29.78,South,173,0.0,0.0,72,0.00,CLR,SCT,0.00,0.0,WeatherDisplay:10.37,2013-05-21 04:04:00,
2013-05-21 00:05:00,73.8,64.2,29.78,South,173,0.0,0.0,72,0.00,CLR,SCT,0.00,0.0,WeatherDisplay:10.37,2013-05-21 04:05:00,
2013-05-21 00:10:00,73.5,63.9,29.77,South,173,0.0,0.0,72,0.00,CLR,SCT,0.00,0.0,WeatherDisplay:10.37,2013-05-21 04:10:00,
2013-05-21 00:15:00,73.3,63.7,29.77,South,173,0.0,0.0,72,0.00,CLR,SCT,0.00,0.0,WeatherDisplay:10.37,2013-05-21 04:15:00,
2013-05-21 00:20:00,73.2,63.6,29.77,South,173,0.0,0.0,72,0.00,CLR,SCT,0.00,0.0,WeatherDisplay:10.37,2013-05-21 04:20:00,
2013-05-21 00:25:00,73.2,63.6,29.77,ESE,122,0.0,0.0,72,0.00,CLR,SCT,0.00,0.0,WeatherDisplay:10.37,2013-05-21 04:25:00,
2013-05-21 00:30:00,73.1,63.5,29.77,ESE,122,0.0,0.0,72,0.00,CLR,SCT,0.00,0.0,WeatherDisplay:10.37,2013-05-21 04:30:00,
2013-05-21 00:35:00,73.0,63.4,29.77,ESE,122,0.0,0.0,72,0.00,CLR,SCT,0.00,0.0,WeatherDisplay:10.37,2013-05-21 04:35:00,
2013-05-21 00:40:00,72.9,63.7,29.77,ESE,122,0.0,0.0,73,0.00,CLR,SCT,0.00,0.0,WeatherDisplay:10.37,2013-05-21 04:40:00,
2013-05-21 00:45:00,72.8,63.6,29.77,ESE,122,0.0,0.0,73,0.00,CLR,SCT,0.00,0.0,WeatherDisplay:10.37,2013-05-21 04:45:00,
2013-05-21 00:50:00,72.6,63.4,29.77,ESE,122,0.0,0.0,73,0.00,CLR,SCT,0.00,0.0,WeatherDisplay:10.37,2013-05-21 04:50:00,
2013-05-21 00:55:00,72.5,63.7,29.78,ESE,122,0.0,0.0,74,0.00,CLR,SCT,0.00,0.0,WeatherDisplay:10.37,2013-05-21 04:55:00,
2013-05-21 01:00:00,72.4,63.6,29.77,ESE,122,0.0,0.0,74,0.00,CLR,SCT,0.00,0.0,WeatherDisplay:10.37,2013-05-21 05:00:00,
2013-05-21 01:05:00,72.4,63.6,29.77,ESE,122,0.0,0.0,74,0.00,FEW,SCT,0.00,0.0,WeatherDisplay:10.37,2013-05-21 05:05:00,
2013-05-21 01:10:00,72.2,63.4,29.77,ESE,122,0.0,0.0,74,0.00,FEW,SCT,0.00,0.0,WeatherDisplay:10.37,2013-05-21 05:10:00,
2013-05-21 01:15:00,72.2,63.4,29.78,ESE,122,0.0,0.0,74,0.00,FEW,SCT,0.00,0.0,WeatherDisplay:10.37,2013-05-21 05:15:00,
2013-05-21 01:20:00,72.0,63.3,29.78,ESE,122,0.0,0.0,74,0.00,FEW,SCT,0.00,0.0,WeatherDisplay:10.37,2013-05-21 05:20:00,
2013-05-21 01:25:00,72.0,63.6,29.77,ESE,105,0.0,0.0,75,0.00,FEW,SCT,0.00,0.0,WeatherDisplay:10.37,2013-05-21 05:25:00,
2013-05-21 01:30:00,72.2,63.4,29.77,ESE,123,0.0,0.0,74,0.00,FEW,SCT,0.00,0.0,WeatherDisplay:10.37,2013-05-21 05:30:00,
2013-05-21 01:35:00,72.4,63.6,29.77,SE,139,0.0,0.0,74,0.00,FEW,SCT,0.00,0.0,WeatherDisplay:10.37,2013-05-21 05:35:00,
2013-05-21 01:40:00,72.6,63.8,29.77,SSE,148,0.0,1.2,74,0.00,FEW,SCT,0.00,0.0,WeatherDisplay:10.37,2013-05-21 05:40:00,
2013-05-21 01:45:00,72.8,63.6,29.77,SSE,148,0.0,0.0,73,0.00,FEW,SCT,0.00,0.0,WeatherDisplay:10.37,2013-05-21 05:45:00,
2013-05-21 01:50:00,72.9,63.7,29.77,West,260,0.0,1.2,73,0.00,FEW,SCT,0.00,0.0,WeatherDisplay:10.37,2013-05-21 05:50:00,
2013-05-21 01:55:00,73.0,63.8,29.77,West,260,0.0,0.0,73,0.00,FEW,SCT,0.00,0.0,WeatherDisplay:10.37,2013-05-21 05:55:00,
2013-05-21 02:00:00,73.0,63.8,29.77,West,260,0.0,0.0,73,0.00,FEW,SCT,0.00,0.0,WeatherDisplay:10.37,2013-05-21 06:00:00,
2013-05-21 02:05:00,72.9,63.7,29.77,West,261,0.0,0.0,73,0.00,FEW,SCT,0.00,0.0,WeatherDisplay:10.37,2013-05-21 06:05:00,
2013-05-21 02:10:00,72.8,64.0,29.76,West,260,0.0,0.0,74,0.00,FEW,SCT,0.00,0.0,WeatherDisplay:10.37,2013-05-21 06:10:00,
2013-05-21 02:15:00,72.6,63.8,29.76,West,260,0.0,0.0,74,0.00,FEW,SCT,0.00,0.0,WeatherDisplay:10.37,2013-05-21 06:15:00,
2013-05-21 02:20:00,72.5,63.7,29.76,West,260,0.0,0.0,74,0.00,FEW,SCT,0.00,0.0,WeatherDisplay:10.37,2013-05-21 06:20:00,
2013-05-21 02:25:00,72.3,63.9,29.76,West,260,0.0,0.0,75,0.00,FEW,SCT,0.00,0.0,WeatherDisplay:10.37,2013-05-21 06:25:00,
2013-05-21 02:30:00,72.1,63.7,29.76,West,260,0.0,0.0,75,0.00,FEW,SCT,0.00,0.0,WeatherDisplay:10.37,2013-05-21 06:30:00,
2013-05-21 02:35:00,71.9,63.9,29.76,West,260,0.0,0.0,76,0.00,FEW,SCT,0.00,0.0,WeatherDisplay:10.37,2013-05-21 06:35:00,
2013-05-21 02:40:00,71.7,63.7,29.76,ESE,105,0.0,0.0,76,0.00,FEW,SCT,0.00,0.0,WeatherDisplay:10.37,2013-05-21 06:40:00,
2013-05-21 02:45:00,71.5,63.9,29.77,ESE,115,0.0,0.0,77,0.00,FEW,SCT,0.00,0.0,WeatherDisplay:10.37,2013-05-21 06:45:00,
2013-05-21 02:50:00,71.4,63.8,29.77,ESE,115,0.0,0.0,77,0.00,FEW,SCT,0.00,0.0,WeatherDisplay:10.37,2013-05-21 06:50:00,
2013-05-21 02:55:00,71.3,64.1,29.77,ESE,115,0.0,0.0,78,0.00,FEW,SCT,0.00,0.0,WeatherDisplay:10.37,2013-05-21 06:55:00,
2013-05-21 03:00:00,71.3,64.1,29.77,SW,216,0.2,2.3,78,0.00,FEW,SCT,0.00,0.0,WeatherDisplay:10.37,2013-05-21 07:00:00,
2013-05-21 03:05:00,71.3,64.1,29.77,SSE,150,0.0,0.0,78,0.00,BKN,SCT,0.00,0.0,WeatherDisplay:10.37,2013-05-21 07:05:00,
2013-05-21 03:10:00,71.4,64.5,29.77,WSW,250,0.0,0.0,79,0.00,BKN,SCT,0.00,0.0,WeatherDisplay:10.37,2013-05-21 07:10:00,
2013-05-21 03:15:00,71.4,64.5,29.77,North,360,0.0,0.0,79,0.00,BKN,SCT,0.00,0.0,WeatherDisplay:10.37,2013-05-21 07:15:00,
2013-05-21 03:20:00,71.5,64.6,29.76,ENE,69,0.0,0.0,79,0.00,BKN,SCT,0.00,0.0,WeatherDisplay:10.37,2013-05-21 07:20:00,
2013-05-21 03:25:00,71.5,64.3,29.76,ENE,71,0.0,0.0,78,0.00,BKN,SCT,0.00,0.0,WeatherDisplay:10.37,2013-05-21 07:25:00,
2013-05-21 03:30:00,71.5,64.6,29.76,WSW,255,0.4,1.2,79,0.00,BKN,SCT,0.00,0.0,WeatherDisplay:10.37,2013-05-21 07:30:00,
2013-05-21 03:35:00,71.4,64.5,29.76,WSW,255,0.0,0.0,79,0.00,BKN,SCT,0.00,0.0,WeatherDisplay:10.37,2013-05-21 07:35:00,
2013-05-21 03:40:00,71.3,64.4,29.75,WSW,255,0.0,0.0,79,0.00,BKN,SCT,0.00,0.0,WeatherDisplay:10.37,2013-05-21 07:40:00,
2013-05-21 03:45:00,71.2,64.4,29.75,WSW,255,0.0,0.0,79,0.00,BKN,SCT,0.00,0.0,WeatherDisplay:10.37,2013-05-21 07:45:00,
2013-05-21 03:50:00,71.1,64.6,29.75,WSW,255,0.0,0.0,80,0.00,BKN,SCT,0.00,0.0,WeatherDisplay:10.37,2013-05-21 07:50:00,
2013-05-21 03:55:00,71.0,64.5,29.75,WSW,255,0.0,0.0,80,0.00,BKN,SCT,0.00,0.0,WeatherDisplay:10.37,2013-05-21 07:55:00,
2013-05-21 04:00:00,70.9,64.8,29.75,WSW,255,0.0,0.0,81,0.00,BKN,SCT,0.00,0.0,WeatherDisplay:10.37,2013-05-21 08:00:00,
2013-05-21 04:05:00,70.7,64.6,29.75,WSW,255,0.1,0.0,81,0.00,BKN,SCT,0.00,0.0,WeatherDisplay:10.37,2013-05-21 08:05:00,
2013-05-21 04:10:00,70.6,64.5,29.74,WSW,255,0.0,0.0,81,0.00,BKN,SCT,0.00,0.0,WeatherDisplay:10.37,2013-05-21 08:10:00,
2013-05-21 04:15:00,70.5,64.7,29.74,WSW,255,0.0,0.0,82,0.00,BKN,SCT,0.00,0.0,WeatherDisplay:10.37,2013-05-21 08:15:00,
2013-05-21 04:20:00,70.5,64.7,29.74,WSW,255,0.0,0.0,82,0.00,BKN,SCT,0.00,0.0,WeatherDisplay:10.37,2013-05-21 08:20:00,
2013-05-21 04:25:00,70.6,64.8,29.74,WSW,255,0.0,0.0,82,0.00,BKN,SCT,0.00,0.0,WeatherDisplay:10.37,2013-05-21 08:25:00,
2013-05-21 04:30:00,70.8,65.0,29.74,WSW,255,0.0,0.0,82,0.00,BKN,SCT,0.00,0.0,WeatherDisplay:10.37,2013-05-21 08:30:00,
2013-05-21 04:35:00,70.9,65.1,29.74,WSW,255,0.0,0.0,82,0.00,BKN,SCT,0.00,0.0,WeatherDisplay:10.37,2013-05-21 08:35:00,
2013-05-21 04:40:00,71.1,65.3,29.74,WSW,255,0.0,0.0,82,0.00,BKN,SCT,0.00,0.0,WeatherDisplay:10.37,2013-05-21 08:40:00,
2013-05-21 04:45:00,71.2,65.1,29.74,WSW,255,0.0,0.0,81,0.00,BKN,SCT,0.00,0.0,WeatherDisplay:10.37,2013-05-21 08:45:00,
2013-05-21 04:50:00,71.2,65.4,29.74,WSW,255,0.0,0.0,82,0.00,BKN,SCT,0.00,0.0,WeatherDisplay:10.37,2013-05-21 08:50:00,
2013-05-21 04:55:00,71.2,65.4,29.74,WSW,255,0.0,0.0,82,0.00,BKN,SCT,0.00,0.0,WeatherDisplay:10.37,2013-05-21 08:55:00,
2013-05-21 05:00:00,71.3,65.5,29.74,WSW,255,0.0,0.0,82,0.00,BKN,SCT,0.00,0.0,WeatherDisplay:10.37,2013-05-21 09:00:00,
2013-05-21 05:05:00,71.3,65.5,29.74,WSW,255,0.1,1.2,82,0.00,BKN,SCT,0.00,0.0,WeatherDisplay:10.37,2013-05-21 09:05:00,
2013-05-21 05:10:00,71.4,65.3,29.74,ESE,117,0.0,0.0,81,0.00,BKN,SCT,0.00,0.0,WeatherDisplay:10.37,2013-05-21 09:10:00,
2013-05-21 05:15:00,71.4,65.6,29.75,South,180,0.1,1.2,82,0.00,BKN,SCT,0.00,0.0,WeatherDisplay:10.37,2013-05-21 09:15:00,
2013-05-21 05:20:00,71.4,65.3,29.75,South,180,0.0,2.0,81,0.00,BKN,SCT,0.00,0.0,WeatherDisplay:10.37,2013-05-21 09:20:00,
2013-05-21 05:25:00,71.4,65.3,29.75,South,180,0.4,1.2,81,0.00,BKN,SCT,0.00,0.0,WeatherDisplay:10.37,2013-05-21 09:25:00,
2013-05-21 05:30:00,71.4,65.3,29.75,SW,218,0.3,1.2,81,0.00,BKN,SCT,0.00,0.0,WeatherDisplay:10.37,2013-05-21 09:30:00,
2013-05-21 05:35:00,71.5,65.4,29.75,WSW,240,0.5,2.3,81,0.00,BKN,SCT,0.00,0.0,WeatherDisplay:10.37,2013-05-21 09:35:00,
2013-05-21 05:40:00,71.7,65.6,29.75,SSE,150,0.4,2.3,81,0.00,BKN,SCT,0.00,0.0,WeatherDisplay:10.37,2013-05-21 09:40:00,
2013-05-21 05:45:00,71.7,65.6,29.75,SSE,156,0.0,0.0,81,0.00,BKN,SCT,0.00,0.0,WeatherDisplay:10.37,2013-05-21 09:45:00,
2013-05-21 05:50:00,71.7,65.6,29.75,SSE,156,0.0,0.0,81,0.00,BKN,SCT,0.00,0.0,WeatherDisplay:10.37,2013-05-21 09:50:00,
2013-05-21 05:55:00,71.8,65.7,29.76,SSE,148,0.2,1.2,81,0.00,BKN,SCT,0.00,0.0,WeatherDisplay:10.37,2013-05-21 09:55:00,
2013-05-21 06:00:00,71.8,65.7,29.75,SSW,199,0.1,2.3,81,0.00,BKN,SCT,0.00,0.0,WeatherDisplay:10.37,2013-05-21 10:00:00,
2013-05-21 06:05:00,71.9,65.4,29.75,ESE,109,0.0,2.3,80,0.00,OVC,SCT,0.00,5.0,WeatherDisplay:10.37,2013-05-21 10:05:00,
2013-05-21 06:10:00,72.0,65.5,29.75,ESE,111,0.0,0.0,80,0.00,OVC,SCT,0.00,5.0,WeatherDisplay:10.37,2013-05-21 10:10:00,
2013-05-21 06:15:00,72.0,65.5,29.75,ESE,110,0.0,1.2,80,0.00,OVC,SCT,0.00,0.0,WeatherDisplay:10.37,2013-05-21 10:15:00,
2013-05-21 06:20:00,72.1,65.6,29.75,SE,136,0.2,1.2,80,0.00,OVC,SCT,0.00,0.0,WeatherDisplay:10.37,2013-05-21 10:20:00,
2013-05-21 06:25:00,72.1,65.6,29.75,SSE,150,0.3,2.3,80,0.00,OVC,SCT,0.00,5.0,WeatherDisplay:10.37,2013-05-21 10:25:00,
2013-05-21 06:30:00,72.2,65.7,29.74,South,172,0.1,2.3,80,0.00,OVC,SCT,0.00,5.0,WeatherDisplay:10.37,2013-05-21 10:30:00,
2013-05-21 06:35:00,72.2,65.7,29.75,SSW,204,0.4,2.0,80,0.00,OVC,SCT,0.00,5.0,WeatherDisplay:10.37,2013-05-21 10:35:00,
2013-05-21 06:40:00,72.1,65.6,29.74,ESE,122,0.4,2.3,80,0.00,OVC,SCT,0.00,9.0,WeatherDisplay:10.37,2013-05-21 10:40:00,
2013-05-21 06:45:00,72.2,65.7,29.74,West,281,0.8,2.3,80,0.00,OVC,SCT,0.00,14.0,WeatherDisplay:10.37,2013-05-21 10:45:00,
2013-05-21 06:50:00,72.2,65.7,29.74,South,185,0.2,1.2,80,0.00,OVC,SCT,0.00,18.0,WeatherDisplay:10.37,2013-05-21 10:50:00,
2013-05-21 06:55:00,72.2,65.7,29.75,West,263,0.5,2.3,80,0.00,OVC,SCT,0.00,19.0,WeatherDisplay:10.37,2013-05-21 10:55:00,
2013-05-21 07:00:00,72.2,66.0,29.75,West,262,0.0,0.0,81,0.00,OVC,SCT,0.00,12.0,WeatherDisplay:10.37,2013-05-21 11:00:00,
2013-05-21 07:05:00,72.2,66.0,29.75,WSW,238,0.0,0.0,81,0.00,OVC,SCT,0.00,18.0,WeatherDisplay:10.37,2013-05-21 11:05:00,
2013-05-21 07:10:00,72.2,66.0,29.75,West,265,0.1,2.3,81,0.00,OVC,SCT,0.00,19.0,WeatherDisplay:10.37,2013-05-21 11:10:00,
2013-05-21 07:15:00,72.2,66.0,29.74,West,265,0.0,0.0,81,0.00,OVC,SCT,0.00,35.0,WeatherDisplay:10.37,2013-05-21 11:15:00,
2013-05-21 07:20:00,72.2,66.4,29.75,West,265,0.0,0.0,82,0.00,OVC,SCT,0.00,35.0,WeatherDisplay:10.37,2013-05-21 11:20:00,
2013-05-21 07:25:00,72.2,66.4,29.75,West,265,0.0,0.0,82,0.00,OVC,SCT,0.00,35.0,WeatherDisplay:10.37,2013-05-21 11:25:00,
2013-05-21 07:30:00,72.1,66.3,29.75,West,265,0.0,0.0,82,0.00,OVC,SCT,0.00,30.0,WeatherDisplay:10.37,2013-05-21 11:30:00,
2013-05-21 07:35:00,72.0,66.2,29.75,West,265,0.0,0.0,82,0.00,OVC,SCT,0.00,21.0,WeatherDisplay:10.37,2013-05-21 11:35:00,
2013-05-21 07:40:00,72.0,66.2,29.74,SE,146,0.0,0.0,82,0.00,OVC,SCT,0.00,28.0,WeatherDisplay:10.37,2013-05-21 11:40:00,
2013-05-21 07:45:00,72.0,66.2,29.74,SE,146,0.0,0.0,82,0.00,OVC,SCT,0.00,26.0,WeatherDisplay:10.37,2013-05-21 11:45:00,
2013-05-21 07:50:00,71.9,66.1,29.73,SE,146,0.0,0.0,82,0.00,OVC,SCT,0.00,23.0,WeatherDisplay:10.37,2013-05-21 11:50:00,
2013-05-21 07:55:00,71.9,66.1,29.72,SE,146,0.0,0.0,82,0.00,OVC,SCT,0.00,23.0,WeatherDisplay:10.37,2013-05-21 11:55:00,
2013-05-21 08:00:00,71.9,66.1,29.72,SE,146,0.2,1.2,82,0.00,OVC,SCT,0.00,26.0,WeatherDisplay:10.37,2013-05-21 12:00:00,
2013-05-21 08:05:00,72.0,66.2,29.72,SE,146,0.0,0.0,82,0.00,OVC,SCT,0.00,35.0,WeatherDisplay:10.37,2013-05-21 12:05:00,
2013-05-21 08:10:00,72.0,66.2,29.72,SE,146,0.0,0.0,82,0.00,OVC,SCT,0.00,44.0,WeatherDisplay:10.37,2013-05-21 12:10:00,
2013-05-21 08:15:00,72.2,66.4,29.71,SE,133,0.6,2.3,82,0.00,OVC,SCT,0.00,51.0,WeatherDisplay:10.37,2013-05-21 12:15:00,
2013-05-21 08:20:00,72.6,66.4,29.72,SSE,164,0.3,2.3,81,0.00,OVC,SCT,0.00,49.0,WeatherDisplay:10.37,2013-05-21 12:20:00,
2013-05-21 08:25:00,73.0,66.8,29.73,South,184,0.2,2.3,81,0.00,OVC,SCT,0.00,53.0,WeatherDisplay:10.37,2013-05-21 12:25:00,
2013-05-21 08:30:00,73.4,66.9,29.72,SSW,195,1.0,2.3,80,0.00,OVC,SCT,0.00,49.0,WeatherDisplay:10.37,2013-05-21 12:30:00,
2013-05-21 08:35:00,73.7,67.1,29.71,SSW,193,0.4,1.2,80,0.00,OVC,SCT,0.00,51.0,WeatherDisplay:10.37,2013-05-21 12:35:00,
2013-05-21 08:40:00,74.0,67.1,29.71,ESE,118,0.2,2.3,79,0.00,OVC,SCT,0.00,53.0,WeatherDisplay:10.37,2013-05-21 12:40:00,
2013-05-21 08:45:00,74.4,67.1,29.71,SSW,210,1.6,3.5,78,0.00,OVC,SCT,0.00,54.0,WeatherDisplay:10.37,2013-05-21 12:45:00,
2013-05-21 08:50:00,74.8,67.5,29.72,WNW,288,0.8,3.5,78,0.00,OVC,SCT,0.00,67.0,WeatherDisplay:10.37,2013-05-21 12:50:00,
2013-05-21 08:55:00,75.1,67.4,29.73,ESE,115,0.7,3.5,77,0.00,OVC,SCT,0.00,97.0,WeatherDisplay:10.37,2013-05-21 12:55:00,
2013-05-21 09:00:00,75.5,67.4,29.73,SW,217,1.2,3.5,76,0.00,OVC,SCT,0.00,104.0,WeatherDisplay:10.37,2013-05-21 13:00:00,
2013-05-21 09:05:00,75.7,67.6,29.74,WNW,298,1.2,3.5,76,0.00,OVC,SCT,0.00,176.0,WeatherDisplay:10.37,2013-05-21 13:05:00,
2013-05-21 09:10:00,76.1,68.0,29.74,West,279,0.4,2.3,76,0.00,OVC,SCT,0.00,179.0,WeatherDisplay:10.37,2013-05-21 13:10:00,
2013-05-21 09:15:00,76.4,68.3,29.74,West,272,0.5,2.3,76,0.00,OVC,SCT,0.00,90.0,WeatherDisplay:10.37,2013-05-21 13:15:00,
2013-05-21 09:20:00,76.5,68.0,29.74,East,101,0.0,0.0,75,0.00,OVC,SCT,0.00,98.0,WeatherDisplay:10.37,2013-05-21 13:20:00,
2013-05-21 09:25:00,76.6,67.7,29.74,ESE,109,1.1,3.5,74,0.00,OVC,SCT,0.00,120.0,WeatherDisplay:10.37,2013-05-21 13:25:00,
2013-05-21 09:30:00,76.9,68.0,29.74,SE,128,0.7,3.5,74,0.00,OVC,SCT,0.00,179.0,WeatherDisplay:10.37,2013-05-21 13:30:00,
2013-05-21 09:35:00,77.1,67.8,29.74,East,98,1.7,5.0,73,0.00,OVC,SCT,0.00,120.0,WeatherDisplay:10.37,2013-05-21 13:35:00,
2013-05-21 09:40:00,77.0,67.7,29.74,WNW,302,1.5,3.5,73,0.00,OVC,SCT,0.00,109.0,WeatherDisplay:10.37,2013-05-21 13:40:00,
2013-05-21 09:45:00,77.1,67.8,29.75,WSW,240,0.3,2.3,73,0.00,OVC,SCT,0.00,97.0,WeatherDisplay:10.37,2013-05-21 13:45:00,
2013-05-21 09:50:00,77.3,68.0,29.75,WNW,290,1.0,3.5,73,0.00,OVC,SCT,0.00,88.0,WeatherDisplay:10.37,2013-05-21 13:50:00,
2013-05-21 09:55:00,77.6,68.3,29.75,NW,305,0.5,2.3,73,0.00,OVC,SCT,0.00,88.0,WeatherDisplay:10.37,2013-05-21 13:55:00,
2013-05-21 10:00:00,77.9,68.1,29.75,WNW,286,1.1,2.3,72,0.00,OVC,SCT,0.00,90.0,WeatherDisplay:10.37,2013-05-21 14:00:00,
2013-05-21 10:05:00,78.2,67.6,29.75,SW,234,2.8,4.6,70,0.00,BKN,SCT,0.00,109.0,WeatherDisplay:10.37,2013-05-21 14:05:00,
2013-05-21 10:10:00,78.5,67.9,29.75,SW,228,0.2,1.2,70,0.00,BKN,SCT,0.00,130.0,WeatherDisplay:10.37,2013-05-21 14:10:00,
2013-05-21 10:15:00,78.9,67.0,29.75,WNW,296,1.0,3.5,67,0.00,BKN,SCT,0.00,104.0,WeatherDisplay:10.37,2013-05-21 14:15:00,
2013-05-21 10:20:00,79.1,65.9,29.75,West,275,1.0,3.5,64,0.00,BKN,SCT,0.00,120.0,WeatherDisplay:10.37,2013-05-21 14:20:00,
2013-05-21 10:25:00,79.3,65.1,29.75,West,270,1.9,6.0,62,0.00,BKN,SCT,0.00,123.0,WeatherDisplay:10.37,2013-05-21 14:25:00,
2013-05-21 10:30:00,79.6,64.5,29.74,WNW,282,2.6,5.8,60,0.00,BKN,SCT,0.00,128.0,WeatherDisplay:10.37,2013-05-21 14:30:00,
2013-05-21 10:35:00,79.9,63.3,29.74,WNW,299,1.5,5.8,57,0.00,BKN,SCT,0.00,107.0,WeatherDisplay:10.37,2013-05-21 14:35:00,
2013-05-21 10:40:00,80.0,62.9,29.75,WNW,297,1.2,4.6,56,0.00,BKN,SCT,0.00,113.0,WeatherDisplay:10.37,2013-05-21 14:40:00,
2013-05-21 10:45:00,80.2,62.0,29.75,WNW,288,1.8,6.9,54,0.00,BKN,SCT,0.00,116.0,WeatherDisplay:10.37,2013-05-21 14:45:00,
2013-05-21 10:50:00,80.6,62.9,29.74,ESE,122,0.4,3.5,55,0.00,BKN,SCT,0.00,188.0,WeatherDisplay:10.37,2013-05-21 14:50:00,
2013-05-21 10:55:00,80.9,63.2,29.74,WNW,295,1.8,4.6,55,0.00,BKN,SCT,0.00,121.0,WeatherDisplay:10.37,2013-05-21 14:55:00,
2013-05-21 11:00:00,81.1,62.3,29.74,NW,312,1.0,4.6,53,0.00,BKN,SCT,0.00,144.0,WeatherDisplay:10.37,2013-05-21 15:00:00,
2013-05-21 11:05:00,81.1,62.9,29.74,WNW,288,0.8,3.5,54,0.00,BKN,SCT,0.00,234.0,WeatherDisplay:10.37,2013-05-21 15:05:00,
2013-05-21 11:10:00,81.6,62.3,29.74,WNW,284,0.4,3.5,52,0.00,BKN,SCT,0.00,766.0,WeatherDisplay:10.37,2013-05-21 15:10:00,
2013-05-21 11:15:00,82.1,62.2,29.74,SW,227,0.8,3.5,51,0.00,BKN,SCT,0.00,800.0,WeatherDisplay:10.37,2013-05-21 15:15:00,
2013-05-21 11:20:00,82.3,61.8,29.74,WSW,241,2.5,4.6,50,0.00,BKN,SCT,0.00,299.0,WeatherDisplay:10.37,2013-05-21 15:20:00,
2013-05-21 11:25:00,82.3,62.9,29.74,WNW,282,1.9,4.6,52,0.00,BKN,SCT,0.00,538.0,WeatherDisplay:10.37,2013-05-21 15:25:00,
2013-05-21 11:30:00,82.6,61.5,29.74,SW,236,2.5,5.8,49,0.00,BKN,SCT,0.00,907.0,WeatherDisplay:10.37,2013-05-21 15:30:00,
2013-05-21 11:35:00,82.4,62.5,29.73,West,266,0.8,3.5,51,0.00,BKN,SCT,0.00,285.0,WeatherDisplay:10.37,2013-05-21 15:35:00,
2013-05-21 11:40:00,81.8,61.3,29.73,WNW,285,0.2,3.5,50,0.00,BKN,SCT,0.00,332.0,WeatherDisplay:10.37,2013-05-21 15:40:00,
2013-05-21 11:45:00,82.0,63.2,29.73,ESE,105,1.0,3.5,53,0.00,BKN,SCT,0.00,826.0,WeatherDisplay:10.37,2013-05-21 15:45:00,
2013-05-21 11:50:00,82.4,62.5,29.74,South,178,0.4,4.6,51,0.00,BKN,SCT,0.00,464.0,WeatherDisplay:10.37,2013-05-21 15:50:00,
2013-05-21 11:55:00,82.5,62.0,29.73,WNW,298,0.3,1.2,50,0.00,BKN,SCT,0.00,334.0,WeatherDisplay:10.37,2013-05-21 15:55:00,
2013-05-21 12:00:00,82.3,62.4,29.73,NW,319,1.2,3.5,51,0.00,BKN,SCT,0.00,434.0,WeatherDisplay:10.37,2013-05-21 16:00:00,
2013-05-21 12:05:00,82.4,61.3,29.73,WSW,254,0.9,2.0,49,0.00,BKN,SCT,0.00,796.0,WeatherDisplay:10.37,2013-05-21 16:05:00,
2013-05-21 12:10:00,82.9,61.2,29.73,West,279,0.2,2.3,48,0.00,BKN,SCT,0.00,445.0,WeatherDisplay:10.37,2013-05-21 16:10:00,
2013-05-21 12:15:00,82.9,61.2,29.72,ENE,63,0.8,1.2,48,0.00,BKN,SCT,0.00,469.0,WeatherDisplay:10.37,2013-05-21 16:15:00,
2013-05-21 12:20:00,82.9,60.6,29.72,ENE,65,0.3,2.3,47,0.00,BKN,SCT,0.00,680.0,WeatherDisplay:10.37,2013-05-21 16:20:00,
2013-05-21 12:25:00,83.1,61.4,29.72,WNW,298,0.8,4.0,48,0.00,BKN,SCT,0.00,475.0,WeatherDisplay:10.37,2013-05-21 16:25:00,
2013-05-21 12:30:00,83.1,60.8,29.72,SW,220,1.4,3.5,47,0.00,BKN,SCT,0.00,320.0,WeatherDisplay:10.37,2013-05-21 16:30:00,
2013-05-21 12:35:00,82.9,61.2,29.72,WSW,252,0.0,2.3,48,0.00,BKN,SCT,0.00,218.0,WeatherDisplay:10.37,2013-05-21 16:35:00,
2013-05-21 12:40:00,82.4,60.7,29.72,NW,316,0.3,2.3,48,0.00,BKN,SCT,0.00,209.0,WeatherDisplay:10.37,2013-05-21 16:40:00,
2013-05-21 12:45:00,81.6,61.2,29.71,WNW,296,0.8,1.2,50,0.00,BKN,SCT,0.00,183.0,WeatherDisplay:10.37,2013-05-21 16:45:00,
2013-05-21 12:50:00,81.3,63.1,29.71,WNW,298,0.0,0.0,54,0.00,BKN,SCT,0.00,174.0,WeatherDisplay:10.37,2013-05-21 16:50:00,
2013-05-21 12:55:00,81.1,60.7,29.72,SW,221,0.6,3.5,50,0.00,BKN,SCT,0.00,230.0,WeatherDisplay:10.37,2013-05-21 16:55:00,
2013-05-21 13:00:00,81.2,61.9,29.72,West,270,0.1,1.2,52,0.00,BKN,SCT,0.00,316.0,WeatherDisplay:10.37,2013-05-21 17:00:00,
2013-05-21 13:05:00,81.5,61.6,29.72,WSW,250,0.0,3.5,51,0.00,OVC,SCT,0.00,497.0,WeatherDisplay:10.37,2013-05-21 17:05:00,
2013-05-21 13:10:00,81.8,60.8,29.72,SW,228,1.9,4.0,49,0.00,OVC,SCT,0.00,424.0,WeatherDisplay:10.37,2013-05-21 17:10:00,
2013-05-21 13:15:00,82.0,61.5,29.72,West,261,1.1,3.5,50,0.00,OVC,SCT,0.00,596.0,WeatherDisplay:10.37,2013-05-21 17:15:00,
2013-05-21 13:20:00,82.5,63.6,29.72,West,269,0.1,1.2,53,0.00,OVC,SCT,0.00,912.0,WeatherDisplay:10.37,2013-05-21 17:20:00,
2013-05-21 13:26:00,83.6,61.8,29.72,ESE,109,1.3,3.5,48,0.00,OVC,SCT,0.00,867.0,WeatherDisplay:10.37,2013-05-21 17:26:00,
2013-05-21 13:31:00,84.1,61.7,29.72,SSW,207,0.2,3.5,47,0.00,OVC,SCT,0.00,879.0,WeatherDisplay:10.37,2013-05-21 17:31:00,
2013-05-21 13:36:00,84.5,60.2,29.72,SE,130,1.8,6.9,44,0.00,OVC,SCT,0.00,944.0,WeatherDisplay:10.37,2013-05-21 17:36:00,
2013-05-21 13:41:00,84.0,59.7,29.71,WSW,246,4.4,10.4,44,0.00,OVC,SCT,0.00,272.0,WeatherDisplay:10.37,2013-05-21 17:41:00,
2013-05-21 13:46:00,82.9,60.0,29.71,WSW,238,1.7,4.6,46,0.00,OVC,SCT,0.00,83.0,WeatherDisplay:10.37,2013-05-21 17:46:00,
2013-05-21 13:51:00,82.0,60.4,29.71,ESE,109,1.8,4.6,48,0.00,OVC,SCT,0.00,46.0,WeatherDisplay:10.37,2013-05-21 17:51:00,
2013-05-21 13:56:00,81.3,60.3,29.71,SSW,211,0.9,6.0,49,0.00,OVC,SCT,0.00,23.0,WeatherDisplay:10.37,2013-05-21 17:56:00,
2013-05-21 14:01:00,80.9,59.9,29.71,SSE,167,0.9,3.5,49,0.00,OVC,SCT,0.00,23.0,WeatherDisplay:10.37,2013-05-21 18:01:00,
2013-05-21 14:06:00,80.5,61.3,29.71,SSW,194,1.1,3.5,52,0.00,OVC,SCT,0.00,30.0,WeatherDisplay:10.37,2013-05-21 18:06:00,
2013-05-21 14:11:00,80.1,60.3,29.71,SSE,165,0.3,3.5,51,0.00,OVC,SCT,0.00,32.0,WeatherDisplay:10.37,2013-05-21 18:11:00,
2013-05-21 14:16:00,79.9,60.7,29.71,SSW,209,0.3,1.2,52,0.00,OVC,SCT,0.00,100.0,WeatherDisplay:10.37,2013-05-21 18:16:00,
2013-05-21 14:21:00,79.8,60.6,29.71,West,259,1.9,3.5,52,0.00,OVC,SCT,0.00,83.0,WeatherDisplay:10.37,2013-05-21 18:21:00,
2013-05-21 14:26:00,79.6,61.0,29.71,SW,232,0.8,2.3,53,0.00,OVC,SCT,0.00,93.0,WeatherDisplay:10.37,2013-05-21 18:26:00,
2013-05-21 14:31:00,79.4,60.8,29.71,WSW,249,2.3,3.5,53,0.00,OVC,SCT,0.00,130.0,WeatherDisplay:10.37,2013-05-21 18:31:00,
2013-05-21 14:36:00,79.5,61.4,29.71,SW,228,0.2,2.3,54,0.00,OVC,SCT,0.00,357.0,WeatherDisplay:10.37,2013-05-21 18:36:00,
2013-05-21 14:41:00,79.9,61.2,29.71,ESE,105,0.7,3.5,53,0.00,OVC,SCT,0.00,288.0,WeatherDisplay:10.37,2013-05-21 18:41:00,
2013-05-21 14:46:00,80.3,62.1,29.70,WNW,292,0.3,2.3,54,0.00,OVC,SCT,0.00,338.0,WeatherDisplay:10.37,2013-05-21 18:46:00,
2013-05-21 14:51:00,80.7,62.0,29.71,SSW,205,0.9,2.3,53,0.00,OVC,SCT,0.00,431.0,WeatherDisplay:10.37,2013-05-21 18:51:00,
2013-05-21 14:56:00,81.6,62.8,29.70,West,279,0.7,2.3,53,0.00,OVC,SCT,0.00,601.0,WeatherDisplay:10.37,2013-05-21 18:56:00,
2013-05-21 15:01:00,82.7,63.3,29.70,SW,225,2.2,5.8,52,0.00,BKN,SCT,0.00,942.0,WeatherDisplay:10.37,2013-05-21 19:01:00,
2013-05-21 15:06:00,83.6,61.8,29.69,North,350,1.0,3.5,48,0.00,BKN,SCT,0.00,907.0,WeatherDisplay:10.37,2013-05-21 19:06:00,
2013-05-21 15:11:00,84.1,61.1,29.69,South,188,1.6,3.5,46,0.00,BKN,SCT,0.00,884.0,WeatherDisplay:10.37,2013-05-21 19:11:00,
2013-05-21 15:16:00,84.4,60.7,29.69,ENE,77,1.8,6.9,45,0.00,BKN,SCT,0.00,881.0,WeatherDisplay:10.37,2013-05-21 19:16:00,
2013-05-21 15:21:00,84.7,61.0,29.68,West,269,1.9,3.5,45,0.00,BKN,SCT,0.00,868.0,WeatherDisplay:10.37,2013-05-21 19:21:00,
2013-05-21 15:26:00,85.6,63.1,29.68,SSE,155,0.4,3.5,47,0.00,BKN,SCT,0.00,861.0,WeatherDisplay:10.37,2013-05-21 19:26:00,
2013-05-21 15:31:00,86.5,61.3,29.68,East,82,1.6,3.5,43,0.00,BKN,SCT,0.00,853.0,WeatherDisplay:10.37,2013-05-21 19:31:00,
2013-05-21 15:36:00,87.2,64.5,29.68,WNW,294,0.3,2.3,47,0.00,BKN,SCT,0.00,844.0,WeatherDisplay:10.37,2013-05-21 19:36:00,
2013-05-21 15:41:00,87.8,61.2,29.68,SSW,192,0.8,4.6,41,0.00,BKN,SCT,0.00,819.0,WeatherDisplay:10.37,2013-05-21 19:41:00,
2013-05-21 15:46:00,88.1,60.0,29.68,West,273,1.3,3.5,39,0.00,BKN,SCT,0.00,789.0,WeatherDisplay:10.37,2013-05-21 19:46:00,
2013-05-21 15:51:00,88.1,60.0,29.69,SSW,210,0.9,3.5,39,0.00,BKN,SCT,0.00,821.0,WeatherDisplay:10.37,2013-05-21 19:51:00,
2013-05-21 15:56:00,88.1,59.3,29.68,ESE,110,2.3,8.1,38,0.00,BKN,SCT,0.00,833.0,WeatherDisplay:10.37,2013-05-21 19:56:00,
2013-05-21 16:01:00,88.1,60.7,29.68,North,10,2.2,5.8,40,0.00,BKN,SCT,0.00,788.0,WeatherDisplay:10.37,2013-05-21 20:01:00,
2013-05-21 16:06:00,87.9,60.6,29.68,NW,306,2.2,3.5,40,0.00,BKN,SCT,0.00,749.0,WeatherDisplay:10.37,2013-05-21 20:06:00,
2013-05-21 16:11:00,87.7,60.4,29.68,West,279,2.2,3.5,40,0.00,BKN,SCT,0.00,854.0,WeatherDisplay:10.37,2013-05-21 20:11:00,
2013-05-21 16:16:00,87.3,59.3,29.68,NW,308,2.1,3.5,39,0.00,BKN,SCT,0.00,884.0,WeatherDisplay:10.37,2013-05-21 20:16:00,
2013-05-21 16:21:00,87.3,59.3,29.68,WSW,255,1.8,3.5,39,0.00,BKN,SCT,0.00,624.0,WeatherDisplay:10.37,2013-05-21 20:21:00,
2013-05-21 16:26:00,87.2,59.2,29.68,ESE,121,1.2,3.5,39,0.00,BKN,SCT,0.00,548.0,WeatherDisplay:10.37,2013-05-21 20:26:00,
2013-05-21 16:31:00,87.0,60.5,29.68,NW,306,1.0,4.6,41,0.00,BKN,SCT,0.00,599.0,WeatherDisplay:10.37,2013-05-21 20:31:00,
2013-05-21 16:36:00,86.2,59.0,29.68,SSE,155,3.1,4.6,40,0.00,BKN,SCT,0.00,329.0,WeatherDisplay:10.37,2013-05-21 20:36:00,
2013-05-21 16:41:00,85.8,60.1,29.68,NNW,344,1.6,5.8,42,0.00,BKN,SCT,0.00,499.0,WeatherDisplay:10.37,2013-05-21 20:41:00,
2013-05-21 16:46:00,86.1,60.3,29.68,NW,313,3.2,6.0,42,0.00,BKN,SCT,0.00,636.0,WeatherDisplay:10.37,2013-05-21 20:46:00,
2013-05-21 16:51:00,85.6,59.9,29.68,NNW,338,0.0,3.5,42,0.00,BKN,SCT,0.00,186.0,WeatherDisplay:10.37,2013-05-21 20:51:00,
2013-05-21 16:56:00,85.5,60.4,29.68,WNW,302,2.0,4.6,43,0.00,BKN,SCT,0.00,483.0,WeatherDisplay:10.37,2013-05-21 20:56:00,
2013-05-21 17:01:00,85.3,60.3,29.68,SSW,208,1.4,4.0,43,0.00,BKN,SCT,0.00,199.0,WeatherDisplay:10.37,2013-05-21 21:01:00,
2013-05-21 17:06:00,84.9,59.9,29.68,NW,313,2.5,8.1,43,0.00,BKN,SCT,0.00,227.0,WeatherDisplay:10.37,2013-05-21 21:06:00,
2013-05-21 17:11:00,85.3,60.9,29.68,West,267,0.1,3.5,44,0.00,BKN,SCT,0.00,580.0,WeatherDisplay:10.37,2013-05-21 21:11:00,
2013-05-21 17:16:00,85.5,60.4,29.68,WNW,300,2.0,4.6,43,0.00,BKN,SCT,0.00,584.0,WeatherDisplay:10.37,2013-05-21 21:16:00,
2013-05-21 17:21:00,85.9,61.5,29.68,NW,313,1.3,6.0,44,0.00,BKN,SCT,0.00,594.0,WeatherDisplay:10.37,2013-05-21 21:21:00,
2013-05-21 17:26:00,86.0,60.9,29.68,NW,311,1.0,4.6,43,0.00,BKN,SCT,0.00,213.0,WeatherDisplay:10.37,2013-05-21 21:26:00,
2013-05-21 17:31:00,85.7,60.6,29.68,WNW,299,1.3,2.3,43,0.00,BKN,SCT,0.00,221.0,WeatherDisplay:10.37,2013-05-21 21:31:00,
2013-05-21 17:36:00,85.5,60.4,29.68,West,277,2.7,4.6,43,0.00,BKN,SCT,0.00,496.0,WeatherDisplay:10.37,2013-05-21 21:36:00,
2013-05-21 17:41:00,85.3,61.6,29.68,NW,306,0.7,3.5,45,0.00,BKN,SCT,0.00,97.0,WeatherDisplay:10.37,2013-05-21 21:41:00,
2013-05-21 17:46:00,84.9,60.6,29.68,West,271,0.6,2.3,44,0.00,BKN,SCT,0.00,156.0,WeatherDisplay:10.37,2013-05-21 21:46:00,
2013-05-21 17:51:00,84.9,61.2,29.68,WNW,298,0.0,2.3,45,0.00,BKN,SCT,0.00,329.0,WeatherDisplay:10.37,2013-05-21 21:51:00,
2013-05-21 17:56:00,85.2,61.5,29.68,West,261,0.2,2.3,45,0.00,BKN,SCT,0.00,457.0,WeatherDisplay:10.37,2013-05-21 21:56:00,
2013-05-21 18:01:00,85.7,61.9,29.68,WSW,258,0.4,2.3,45,0.00,BKN,SCT,0.00,503.0,WeatherDisplay:10.37,2013-05-21 22:01:00,
2013-05-21 18:06:00,85.9,60.8,29.68,WSW,244,1.1,2.3,43,0.00,BKN,SCT,0.00,127.0,WeatherDisplay:10.37,2013-05-21 22:06:00,
2013-05-21 18:11:00,85.9,60.8,29.68,WSW,251,0.6,3.5,43,0.00,BKN,SCT,0.00,341.0,WeatherDisplay:10.37,2013-05-21 22:11:00,
2013-05-21 18:16:00,85.8,61.4,29.67,NW,309,0.7,3.5,44,0.00,BKN,SCT,0.00,406.0,WeatherDisplay:10.37,2013-05-21 22:16:00,
2013-05-21 18:21:00,86.0,60.9,29.67,WNW,303,1.3,3.5,43,0.00,BKN,SCT,0.00,378.0,WeatherDisplay:10.37,2013-05-21 22:21:00,
2013-05-21 18:26:00,86.1,61.0,29.67,NW,306,0.1,2.3,43,0.00,BKN,SCT,0.00,315.0,WeatherDisplay:10.37,2013-05-21 22:26:00,
2013-05-21 18:31:00,86.1,61.0,29.67,WSW,244,0.3,2.3,43,0.00,BKN,SCT,0.00,334.0,WeatherDisplay:10.37,2013-05-21 22:31:00,
2013-05-21 18:36:00,86.2,61.1,29.67,SW,227,0.1,1.2,43,0.00,BKN,SCT,0.00,292.0,WeatherDisplay:10.37,2013-05-21 22:36:00,
2013-05-21 18:41:00,86.1,61.0,29.66,WNW,289,0.0,1.2,43,0.00,BKN,SCT,0.00,163.0,WeatherDisplay:10.37,2013-05-21 22:41:00,
2013-05-21 18:46:00,85.8,61.4,29.66,North,355,0.9,2.3,44,0.00,BKN,SCT,0.00,220.0,WeatherDisplay:10.37,2013-05-21 22:46:00,
2013-05-21 18:51:00,85.4,61.0,29.66,WNW,302,1.1,2.3,44,0.00,BKN,SCT,0.00,88.0,WeatherDisplay:10.37,2013-05-21 22:51:00,
2013-05-21 18:56:00,85.1,60.7,29.66,WNW,302,0.0,3.5,44,0.00,BKN,SCT,0.00,65.0,WeatherDisplay:10.37,2013-05-21 22:56:00,
2013-05-21 19:01:00,84.8,61.1,29.66,SSW,210,0.1,1.2,45,0.00,BKN,SCT,0.00,62.0,WeatherDisplay:10.37,2013-05-21 23:01:00,
2013-05-21 19:06:00,84.3,60.6,29.66,West,281,0.1,2.3,45,0.00,BKN,SCT,0.00,65.0,WeatherDisplay:10.37,2013-05-21 23:06:00,
2013-05-21 19:11:00,84.0,61.0,29.66,WNW,293,0.0,1.2,46,0.00,BKN,SCT,0.00,63.0,WeatherDisplay:10.37,2013-05-21 23:11:00,
2013-05-21 19:16:00,83.8,60.8,29.66,WNW,293,0.0,0.0,46,0.00,BKN,SCT,0.00,65.0,WeatherDisplay:10.37,2013-05-21 23:16:00,
2013-05-21 19:21:00,83.6,61.2,29.66,WNW,288,0.1,1.2,47,0.00,BKN,SCT,0.00,62.0,WeatherDisplay:10.37,2013-05-21 23:21:00,
2013-05-21 19:26:00,83.4,61.1,29.66,East,96,0.0,1.2,47,0.00,BKN,SCT,0.00,46.0,WeatherDisplay:10.37,2013-05-21 23:26:00,
2013-05-21 19:31:00,83.2,60.3,29.66,WNW,292,0.3,2.3,46,0.00,BKN,SCT,0.00,33.0,WeatherDisplay:10.37,2013-05-21 23:31:00,
2013-05-21 19:36:00,82.9,60.6,29.67,WNW,292,0.1,1.2,47,0.00,BKN,SCT,0.00,25.0,WeatherDisplay:10.37,2013-05-21 23:36:00,
2013-05-21 19:41:00,82.7,60.4,29.67,WNW,292,0.0,0.0,47,0.00,BKN,SCT,0.00,25.0,WeatherDisplay:10.37,2013-05-21 23:41:00,
2013-05-21 19:46:00,82.6,60.9,29.67,WNW,292,0.0,0.0,48,0.00,BKN,SCT,0.00,33.0,WeatherDisplay:10.37,2013-05-21 23:46:00,
2013-05-21 19:51:00,82.5,62.5,29.67,WNW,292,0.0,1.2,51,0.00,BKN,SCT,0.00,69.0,WeatherDisplay:10.37,2013-05-21 23:51:00,
2013-05-21 19:56:00,82.5,63.1,29.67,WNW,299,0.0,0.0,52,0.00,BKN,SCT,0.00,69.0,WeatherDisplay:10.37,2013-05-21 23:56:00,
2013-05-21 20:01:00,82.4,63.0,29.67,WNW,299,0.0,0.0,52,0.00,BKN,SCT,0.00,63.0,WeatherDisplay:10.37,2013-05-22 00:01:00,
2013-05-21 20:06:00,82.2,62.3,29.67,WNW,299,0.0,0.0,51,0.00,BKN,SCT,0.00,65.0,WeatherDisplay:10.37,2013-05-22 00:06:00,
2013-05-21 20:11:00,82.1,63.3,29.67,WNW,299,0.0,0.0,53,0.00,BKN,SCT,0.00,42.0,WeatherDisplay:10.37,2013-05-22 00:11:00,
2013-05-21 20:16:00,82.0,62.6,29.67,WNW,299,0.0,0.0,52,0.00,BKN,SCT,0.00,35.0,WeatherDisplay:10.37,2013-05-22 00:16:00,
2013-05-21 20:21:00,81.7,62.9,29.67,WNW,299,0.0,0.0,53,0.00,BKN,SCT,0.00,30.0,WeatherDisplay:10.37,2013-05-22 00:21:00,
2013-05-21 20:26:00,81.3,62.5,29.67,WNW,299,0.0,0.0,53,0.00,BKN,SCT,0.00,25.0,WeatherDisplay:10.37,2013-05-22 00:26:00,
2013-05-21 20:31:00,81.0,62.3,29.67,WNW,299,0.0,0.0,53,0.00,BKN,SCT,0.00,19.0,WeatherDisplay:10.37,2013-05-22 00:31:00,
2013-05-21 20:36:00,80.6,62.4,29.67,WNW,299,0.0,0.0,54,0.00,BKN,SCT,0.00,16.0,WeatherDisplay:10.37,2013-05-22 00:36:00,
2013-05-21 20:41:00,80.3,62.1,29.67,WNW,299,0.0,0.0,54,0.00,BKN,SCT,0.00,12.0,WeatherDisplay:10.37,2013-05-22 00:41:00,
2013-05-21 20:46:00,79.9,62.3,29.67,WNW,299,0.0,0.0,55,0.00,BKN,SCT,0.00,9.0,WeatherDisplay:10.37,2013-05-22 00:46:00,
2013-05-21 20:51:00,79.5,61.9,29.67,WNW,299,0.0,0.0,55,0.00,BKN,SCT,0.00,7.0,WeatherDisplay:10.37,2013-05-22 00:51:00,
2013-05-21 20:56:00,79.2,62.7,29.66,WNW,299,0.0,0.0,57,0.00,BKN,SCT,0.00,5.0,WeatherDisplay:10.37,2013-05-22 00:56:00,
2013-05-21 21:01:00,78.9,62.4,29.66,WNW,299,0.0,0.0,57,0.00,BKN,SCT,0.00,0.0,WeatherDisplay:10.37,2013-05-22 01:01:00,
2013-05-21 21:06:00,78.5,62.0,29.66,WNW,299,0.0,0.0,57,0.00,BKN,SCT,0.00,0.0,WeatherDisplay:10.37,2013-05-22 01:06:00,
2013-05-21 21:11:00,78.1,62.1,29.66,WNW,299,0.0,0.0,58,0.00,BKN,SCT,0.00,0.0,WeatherDisplay:10.37,2013-05-22 01:11:00,
2013-05-21 21:16:00,77.8,62.3,29.67,WNW,299,0.0,0.0,59,0.00,BKN,SCT,0.00,0.0,WeatherDisplay:10.37,2013-05-22 01:16:00,
2013-05-21 21:21:00,77.5,62.5,29.67,WNW,299,0.0,0.0,60,0.00,BKN,SCT,0.00,0.0,WeatherDisplay:10.37,2013-05-22 01:21:00,
2013-05-21 21:26:00,77.2,62.7,29.67,WNW,299,0.0,0.0,61,0.00,BKN,SCT,0.00,0.0,WeatherDisplay:10.37,2013-05-22 01:26:00,
2013-05-21 21:31:00,76.9,62.4,29.67,WNW,299,0.0,0.0,61,0.00,BKN,SCT,0.00,0.0,WeatherDisplay:10.37,2013-05-22 01:31:00,
2013-05-21 21:36:00,76.6,62.6,29.67,WNW,299,0.0,0.0,62,0.00,BKN,SCT,0.00,0.0,WeatherDisplay:10.37,2013-05-22 01:36:00,
2013-05-21 21:41:00,76.4,62.9,29.67,WNW,299,0.0,0.0,63,0.00,BKN,SCT,0.00,0.0,WeatherDisplay:10.37,2013-05-22 01:41:00,
2013-05-21 21:46:00,76.2,62.7,29.67,WNW,299,0.0,0.0,63,0.00,BKN,SCT,0.00,0.0,WeatherDisplay:10.37,2013-05-22 01:46:00,
2013-05-21 21:51:00,76.1,63.0,29.67,WNW,299,0.0,0.0,64,0.00,BKN,SCT,0.00,0.0,WeatherDisplay:10.37,2013-05-22 01:51:00,
2013-05-21 21:56:00,76.0,63.8,29.67,WNW,299,0.0,0.0,66,0.00,BKN,SCT,0.00,0.0,WeatherDisplay:10.37,2013-05-22 01:56:00,
2013-05-21 22:01:00,75.8,66.1,29.68,WNW,299,0.0,0.0,72,0.00,BKN,SCT,0.00,0.0,WeatherDisplay:10.37,2013-05-22 02:01:00,
2013-05-21 22:06:00,75.2,67.1,29.69,WNW,299,0.0,0.0,76,0.02,RA,SCT,0.02,0.0,WeatherDisplay:10.37,2013-05-22 02:06:00,
2013-05-21 22:11:00,74.5,67.6,29.69,NW,322,1.4,3.5,79,0.02,RA,SCT,0.02,0.0,WeatherDisplay:10.37,2013-05-22 02:11:00,
2013-05-21 22:16:00,73.7,64.9,29.69,West,263,0.0,3.5,74,0.02,BKN,SCT,0.02,0.0,WeatherDisplay:10.37,2013-05-22 02:16:00,
2013-05-21 22:21:00,73.3,66.0,29.70,West,263,0.0,0.0,78,0.02,BKN,SCT,0.02,0.0,WeatherDisplay:10.37,2013-05-22 02:21:00,
2013-05-21 22:26:00,72.6,65.7,29.70,West,263,0.0,0.0,79,0.02,BKN,SCT,0.02,0.0,WeatherDisplay:10.37,2013-05-22 02:26:00,
2013-05-21 22:31:00,72.0,65.5,29.70,West,263,0.0,0.0,80,0.02,BKN,SCT,0.02,0.0,WeatherDisplay:10.37,2013-05-22 02:31:00,
2013-05-21 22:36:00,71.5,66.1,29.70,West,263,0.0,0.0,83,0.02,BKN,SCT,0.02,0.0,WeatherDisplay:10.37,2013-05-22 02:36:00,
2013-05-21 22:41:00,71.1,66.0,29.70,West,263,0.0,0.0,84,0.02,BKN,SCT,0.02,0.0,WeatherDisplay:10.37,2013-05-22 02:41:00,
2013-05-21 22:46:00,70.8,66.1,29.69,West,263,0.0,0.0,85,0.02,BKN,SCT,0.02,0.0,WeatherDisplay:10.37,2013-05-22 02:46:00,
2013-05-21 22:51:00,70.5,66.1,29.69,West,263,0.0,0.0,86,0.02,BKN,SCT,0.02,0.0,WeatherDisplay:10.37,2013-05-22 02:51:00,
2013-05-21 22:56:00,70.3,66.2,29.69,West,263,0.0,0.0,87,0.02,BKN,SCT,0.02,0.0,WeatherDisplay:10.37,2013-05-22 02:56:00,
2013-05-21 23:01:00,70.0,66.0,29.69,West,263,0.0,0.0,87,0.02,OVC,SCT,0.02,0.0,WeatherDisplay:10.37,2013-05-22 03:01:00,
2013-05-21 23:06:00,69.9,66.2,29.69,West,263,0.0,0.0,88,0.00,OVC,SCT,0.02,0.0,WeatherDisplay:10.37,2013-05-22 03:06:00,
2013-05-21 23:11:00,69.7,66.3,29.69,West,263,0.0,0.0,89,0.00,OVC,SCT,0.02,0.0,WeatherDisplay:10.37,2013-05-22 03:11:00,
2013-05-21 23:16:00,69.5,66.1,29.69,West,263,0.0,0.0,89,0.00,OVC,SCT,0.02,0.0,WeatherDisplay:10.37,2013-05-22 03:16:00,
2013-05-21 23:21:00,69.3,65.9,29.69,West,263,0.0,0.0,89,0.00,OVC,SCT,0.02,0.0,WeatherDisplay:10.37,2013-05-22 03:21:00,
2013-05-21 23:26:00,69.2,66.1,29.69,West,263,0.0,0.0,90,0.00,OVC,SCT,0.02,0.0,WeatherDisplay:10.37,2013-05-22 03:26:00,
2013-05-21 23:31:00,69.0,65.9,29.69,West,263,0.0,0.0,90,0.00,OVC,SCT,0.02,0.0,WeatherDisplay:10.37,2013-05-22 03:31:00,
2013-05-21 23:36:00,69.0,66.3,29.69,West,263,0.0,0.0,91,0.00,OVC,SCT,0.02,0.0,WeatherDisplay:10.37,2013-05-22 03:36:00,
2013-05-21 23:41:00,68.9,66.2,29.69,West,263,0.0,0.0,91,0.00,OVC,SCT,0.02,0.0,WeatherDisplay:10.37,2013-05-22 03:41:00,
2013-05-21 23:46:00,68.9,66.5,29.70,West,263,0.0,0.0,92,0.00,OVC,SCT,0.02,0.0,WeatherDisplay:10.37,2013-05-22 03:46:00,
2013-05-21 23:51:00,68.9,66.5,29.70,West,263,0.0,0.0,92,0.00,OVC,SCT,0.02,0.0,WeatherDisplay:10.37,2013-05-22 03:51:00,
2013-05-21 23:56:00,68.8,66.4,29.70,West,263,0.0,0.0,92,0.00,OVC,SCT,0.02,0.0,WeatherDisplay:10.37,2013-05-22 03:56:00,